Henderson, NV

12:09 PM PDT on March 29, 2017 (GMT -0700)
Henderson

Weather History for KHND - June, 2012

Change the Weather History Date:

Saturday, June 2, 2012

  Actual Average (KLAS) Record (KLAS)
Temperature  
Mean Temperature 92 °F -  
Max Temperature 102 °F 94 °F 107 °F (2003)
Min Temperature 82 °F 66 °F 49 °F (1955)
Cooling Degree Days 27    
Growing Degree Days 42 (Base 50)    
Moisture  
Dew Point 21 °F    
Average Humidity 8    
Maximum Humidity 13    
Minimum Humidity 4    
Precipitation  
Precipitation 0.00 in - - ()
Sea Level Pressure  
Sea Level Pressure 29.57 in    
Wind  
Wind Speed 14 mph (SSW)    
Max Wind Speed 24 mph    
Max Gust Speed -    
Visibility 10 miles    
Events      
Averages and records for this station are not official NWS values.
T = Trace of Precipitation, MM = Missing Value Source: NWS Daily Summary

Daily Weather History Graph

Daily Weather History Graph

Search for Another Location

Airport or City:

Trip Planner

Search our weather history database for the weather conditions in past years. The results will help you decide how hot, cold, wet, or windy it might be!

Date:

Astronomy

Jun. 02, 2012 Rise Set
Actual Time 5:24 AM PDT 7:52 PM PDT
Civil Twilight 4:54 AM PDT 8:22 PM PDT
Nautical Twilight 4:18 AM PDT 8:59 PM PDT
Astronomical Twilight 3:37 AM PDT 9:40 PM PDT
Moon 6:14 PM PDT (6/2) 3:43 AM PDT (6/2)
Length of Visible Light 15h 27m
Length of Day
14h 28m
Waxing Gibbous, 96% of the Moon is Illuminated
Jun 2
Waxing Gibbous
Jun 4
Full
Jun 11
Last Quarter
Jun 19
New
Jun 26
First Quarter

Hourly Weather History & Observations

Time (PDT) Temp. Dew Point Humidity Pressure Visibility Wind Dir Wind Speed Gust Speed Precip Events Conditions
12:56 AM 86.9 °F 21.0 °F 9% 29.57 in 10.0 mi South 11.5 mph - N/A   Clear
1:56 AM 86.0 °F 24.1 °F 10% 29.56 in 10.0 mi SSE 10.4 mph - N/A   Clear
2:56 AM 84.9 °F 24.1 °F 11% 29.55 in 10.0 mi South 12.7 mph - N/A   Clear
3:56 AM 82.9 °F 24.1 °F 12% 29.57 in 10.0 mi SSW 5.8 mph - N/A   Clear
4:56 AM 82.9 °F 24.1 °F 12% 29.56 in 10.0 mi South 12.7 mph - N/A   Clear
6:56 AM 84.9 °F 25.2 °F 11% 29.58 in 10.0 mi SW 15.0 mph - N/A   Clear
7:56 AM 88.9 °F 26.1 °F 10% 29.60 in 10.0 mi SSW 12.7 mph - N/A   Clear
8:56 AM 92.8 °F 27.1 °F 10% 29.60 in 10.0 mi South 15.0 mph - N/A   Clear
9:56 AM 95.9 °F 26.1 °F 8% 29.60 in 10.0 mi SSW 15.0 mph - N/A   Clear
10:56 AM 97.9 °F 24.1 °F 7% 29.60 in 10.0 mi WSW 18.4 mph - N/A   Clear
11:56 AM 100.9 °F 19.0 °F 5% 29.59 in 10.0 mi SSW 24.2 mph - N/A   Clear
12:56 PM 101.8 °F 13.1 °F 4% 29.59 in 10.0 mi South 20.7 mph - N/A   Clear
1:56 PM 101.8 °F 15.1 °F 4% 29.57 in 10.0 mi SW 20.7 mph - N/A   Clear
2:56 PM 102.9 °F 13.1 °F 4% 29.55 in 10.0 mi SW 20.7 mph - N/A   Clear
3:56 PM 102.9 °F 14.0 °F 4% 29.54 in 10.0 mi SW 16.1 mph - N/A   Clear
4:56 PM 101.8 °F 18.1 °F 5% 29.53 in 10.0 mi SSW 19.6 mph - N/A   Clear
5:56 PM 100.9 °F 19.0 °F 5% 29.52 in 10.0 mi SW 20.7 mph - N/A   Clear
6:56 PM 99.0 °F 16.2 °F 5% 29.53 in 10.0 mi West 12.7 mph - N/A   Clear
7:56 PM 95.9 °F 19.0 °F 6% 29.55 in 10.0 mi SW 9.2 mph - N/A   Clear
8:56 PM 91.9 °F 20.1 °F 7% 29.56 in 10.0 mi SSW 10.4 mph - N/A   Clear
9:56 PM 90.0 °F 22.1 °F 8% 29.59 in 10.0 mi South 10.4 mph - N/A   Clear
10:56 PM 88.0 °F 24.1 °F 10% 29.59 in 10.0 mi South 13.8 mph - N/A   Clear
11:56 PM 84.9 °F 28.0 °F 13% 29.60 in 10.0 mi SSW 12.7 mph - N/A   Clear